{"data":{"norad_id":65141,"epoch":"2026-05-25T03:23:43.522944Z","epoch_age_seconds":53021,"freshness":"FRESH","line1":"1 65141U 25171K   26145.14147596  .00000438  00000+0  86504-4 0  9999","line2":"2 65141  51.8977 192.4916 0000351  79.1169 280.9832 14.79933176 44033","mean_motion":14.79933176,"eccentricity":3.51e-5,"inclination_deg":51.8977,"raan_deg":192.4916,"arg_perigee_deg":79.1169,"mean_anomaly_deg":280.9832,"bstar":8.6504e-5,"rev_number":4403,"period_min":97.301690600117,"perigee_km":629.28910429688,"apogee_km":629.78104287645,"semimajor_km":7007.6720735867,"source":"CELESTRAK","updated_at":"2026-05-25T13:38:05.167166Z"}}